[[{"header":{"parameterUnit":"m.s-1","parameterCategory":1,"la1":30.2991,"la2":30.254,"lo1":-89.0895,"lo2":-89.0444,"dy":0.0017,"dx":0.0017,"nx":28,"ny":28,"refTime":"2025-01-24T03:00:00:Z","depth":0,"parameterNumber":2,"parameterNumberName":"U-component_of_WINDS"},"data":[0,0,0,0,0,0,0,0,0,0,0,0,0,0,0,0,0,0,0,0,0,0,0,0,0,0,0,0,0,0,0,0,0,0,0,0,0,0,0,0,0,0,0,0,0,0,0,0,0,0,0,0,0,0,0,0,0,0,1.1415,1.1415,0,1.1381,1.138,1.138,1.1345,1.1344,1.1344,1.1343,1.1306,1.1306,1.1305,0,0,0,0,0,0,0,0,0,0,0,0,0,1.1449,1.1448,1.1415,1.1415,1.1414,1.1381,1.138,1.138,1.1345,1.1344,1.1344,1.1343,1.1307,1.1306,1.1305,0,0,0,0,0,0,0,0,0,0,0,0,0,1.1426,1.1448,1.1415,1.1393,1.139,1.1381,1.138,1.138,1.1345,1.1344,1.1344,1.1343,1.1307,1.1306,1.1305,1.1315,0,0,1.1303,1.1302,0,0,0,0,0,0,0,0,1.1428,1.1425,1.1396,1.1394,1.1392,1.1366,1.1379,1.1358,1.1345,1.1362,1.1343,1.1343,1.1327,1.1324,1.1319,1.1313,1.1311,1.1303,1.1302,1.1302,1.1302,0,0,0,0,0,0,0,1.1429,1.1426,1.1401,1.1396,1.1393,1.1384,1.138,1.1375,1.1349,1.1361,1.1358,1.1355,1.1325,1.132,1.1318,1.1311,1.1303,1.1302,1.1302,1.1301,1.1311,1.1312,0,0,0,0,0,0,1.1434,1.1428,1.1402,1.14,1.1408,1.1384,1.1379,1.1375,1.1349,1.1344,1.1355,1.1353,1.1322,1.1319,1.1317,1.1327,1.1302,1.1301,1.1301,1.1311,1.1312,1.1312,0,0,0,0,0,0,1.1435,1.1432,1.1404,1.1413,1.1409,1.1384,1.138,1.1375,1.137,1.1345,1.134,1.1355,1.1321,1.1318,1.1316,1.1325,1.1301,1.13,1.131,1.1311,1.1312,1.1347,0,0,0,0,0,0,1.1436,1.1433,1.1436,1.1414,1.1409,1.1404,1.138,1.1375,1.1369,1.1366,1.1343,1.1339,1.1321,1.1317,1.1315,1.1324,1.1299,1.1309,1.131,1.1312,1.1345,1.1349,1.1353,0,0,0,0,0,1.1438,1.1447,1.1437,1.1434,1.1413,1.1404,1.1401,1.1381,1.137,1.1373,1.1357,1.1339,1.1325,1.1317,1.1315,1.1323,1.1308,1.131,1.1312,1.1343,1.1348,1.1353,0,0,0,0,0,0,1.147,1.1443,1.1432,1.1434,1.1422,1.1399,1.1402,1.1387,1.1377,1.1375,1.1349,1.1344,1.1345,1.1334,1.1326,1.1331,1.1314,1.1315,1.1339,1.1344,1.1348,1.135,1.1299,0,0,0,0,0,1.1478,1.1474,1.145,1.1455,1.1449,1.1427,1.1422,1.1408,1.1394,1.1388,1.1372,1.1359,1.1351,1.1347,1.1338,1.1343,1.1338,1.1347,1.1351,1.1355,1.1356,1.1359,1.1363,1.1318,1.1318,1.1318,0,0,1.1493,1.1478,1.1477,1.1461,1.145,1.1446,1.1423,1.1419,1.1417,1.1388,1.1385,1.1373,1.1356,1.1358,1.1358,1.1349,1.1368,1.1357,1.136,1.1359,1.1361,1.1366,1.1369,1.1319,1.1319,1.1319,0,0,1.152,1.1508,1.1511,1.15,1.1484,1.1469,1.147,1.1449,1.144,1.1437,1.1416,1.1412,1.1399,1.1388,1.1381,1.1405,1.1389,1.1403,1.1424,1.1427,1.143,1.1434,1.1443,1.1446,1.1405,1.1405,1.1405,0,1.1541,1.1535,1.1514,1.1512,1.1506,1.1481,1.1484,1.1474,1.1456,1.1452,1.1442,1.1426,1.1413,1.1413,1.1419,1.1414,1.1414,1.1406,1.1432,1.1435,1.1437,1.1446,1.1449,1.1407,1.1406,1.1406,1.1406,0,1.1562,1.1558,1.1562,1.1547,1.1541,1.1542,1.152,1.1517,1.1503,1.149,1.1487,1.1471,1.1459,1.1458,1.1444,1.1456,1.1451,1.1437,1.1419,1.1444,1.1451,1.1454,1.1409,1.1409,1.1408,1.1408,0,0,1.1608,1.1581,1.1583,1.1576,1.1557,1.1553,1.1553,1.1542,1.154,1.1529,1.1528,1.1519,1.1506,1.1498,1.1482,1.1485,1.1506,1.147,1.147,1.1478,1.1519,1.1531,1.1535,1.1495,1.1496,1.1496,1.1521,0,1.1631,1.163,1.1611,1.1615,1.1612,1.1588,1.1588,1.1576,1.1564,1.1559,1.1544,1.1539,1.1522,1.1517,1.1519,1.1503,1.1514,1.1501,1.1495,1.1495,1.15,1.1538,1.155,1.1574,1.1524,1.1524,1.1524,0,1.1658,1.165,1.1654,1.1635,1.1633,1.1634,1.1623,1.1619,1.1605,1.1596,1.1588,1.1571,1.1569,1.1552,1.155,1.1542,1.1538,1.153,1.1531,1.153,1.1511,1.1539,1.1581,1.1585,1.1529,1.1528,1.1528,0,1.1692,1.1681,1.1683,1.1677,1.1656,1.1657,1.1648,1.1633,1.1629,1.1619,1.1616,1.1606,1.1601,1.1594,1.1575,1.1564,1.1575,1.1556,1.1568,1.1568,1.1571,1.1571,1.1614,1.1568,1.1568,1.1568,1.1568,0,1.1721,1.1724,1.1698,1.1699,1.1702,1.1681,1.1684,1.1673,1.1661,1.1659,1.1637,1.1636,1.1611,1.1607,1.1592,1.1593,1.159,1.1583,1.1579,1.1585,1.1586,1.1582,1.158,1.1569,1.1568,1.1568,1.1568,0,1.1759,1.1742,1.1742,1.1722,1.1717,1.172,1.1703,1.1703,1.169,1.1688,1.1686,1.1665,1.1659,1.1639,1.1628,1.1618,1.1624,1.1616,1.1629,1.1626,1.1639,1.1638,1.1681,1.1686,1.1636,1.1637,1.1637,0,1.1779,1.1781,1.1762,1.176,1.1752,1.1748,1.1744,1.1723,1.1719,1.1704,1.1706,1.1699,1.1692,1.1684,1.1667,1.1659,1.1651,1.1666,1.1649,1.1656,1.1652,1.1652,1.1653,1.167,1.1671,1.1671,1.1672,0,1.1816,1.1808,1.1802,1.1794,1.179,1.1782,1.1773,1.1772,1.1749,1.1745,1.174,1.1734,1.1724,1.1717,1.1706,1.1697,1.1681,1.1677,1.1679,1.1686,1.1694,1.169,1.1639,1.1676,1.1676,1.1675,1.1675,1.1675,1.1846,1.1848,1.1835,1.183,1.1821,1.1814,1.1813,1.18,1.1795,1.1785,1.1773,1.1769,1.1756,1.174,1.1732,1.1728,1.1719,1.1722,1.1723,1.1724,1.1728,1.1694,1.1726,1.1726,1.1726,1.1726,1.1725,0,1.1883,1.1874,1.1869,1.1858,1.1854,1.184,1.183,1.1828,1.1825,1.1814,1.1808,1.1802,1.1795,1.1779,1.1771,1.1771,1.1764,1.177,1.177,1.1768,1.1736,1.1735,1.1776,1.1776,1.1776,1.1776,1.1776,1.1776,1.1902,1.1904,1.1894,1.1892,1.1882,1.1879,1.1874,1.1867,1.1859,1.1853,1.1848,1.1838,1.1825,1.1816,1.1809,1.1804,1.1803,1.1812,1.1804,1.1775,1.177,1.1765,1.1765,1.1811,1.1811,1.1837,1.1837,1.1837]},{"header":{"parameterUnit":"m.s-1","parameterCategory":1,"la1":30.2991,"la2":30.254,"lo1":-89.0895,"lo2":-89.0444,"dy":0.0017,"dx":0.0017,"nx":28,"ny":28,"refTime":"2025-01-24T03:00:00:Z","depth":0,"parameterNumber":3,"parameterNumberName":"V-component_of_WINDS"},"data":[0,0,0,0,0,0,0,0,0,0,0,0,0,0,0,0,0,0,0,0,0,0,0,0,0,0,0,0,0,0,0,0,0,0,0,0,0,0,0,0,0,0,0,0,0,0,0,0,0,0,0,0,0,0,0,0,0,0,-2.6604,-2.6605,0,-2.6698,-2.6699,-2.67,-2.6679,-2.6678,-2.6676,-2.6674,-2.6769,-2.6773,-2.6777,0,0,0,0,0,0,0,0,0,0,0,0,0,-2.6406,-2.6409,-2.6604,-2.6605,-2.6606,-2.6698,-2.6699,-2.67,-2.668,-2.6678,-2.6675,-2.6673,-2.6768,-2.6773,-2.6778,0,0,0,0,0,0,0,0,0,0,0,0,0,-2.6495,-2.6411,-2.6604,-2.6607,-2.6608,-2.6698,-2.6699,-2.6701,-2.668,-2.6678,-2.6675,-2.6672,-2.6766,-2.6772,-2.6778,-2.687,0,0,-2.6797,-2.68,0,0,0,0,0,0,0,0,-2.649,-2.6502,-2.6605,-2.6607,-2.6609,-2.6674,-2.6664,-2.6757,-2.6681,-2.6653,-2.6674,-2.6671,-2.674,-2.6748,-2.6771,-2.6874,-2.6878,-2.6798,-2.6802,-2.6804,-2.6806,0,0,0,0,0,0,0,-2.6484,-2.6498,-2.6641,-2.6607,-2.6609,-2.6604,-2.6613,-2.6682,-2.671,-2.6655,-2.6654,-2.6665,-2.674,-2.6765,-2.6773,-2.688,-2.6798,-2.6803,-2.6807,-2.681,-2.7062,-2.7065,0,0,0,0,0,0,-2.6476,-2.6493,-2.6638,-2.6644,-2.6542,-2.6609,-2.662,-2.6656,-2.6709,-2.6715,-2.6667,-2.6664,-2.6756,-2.6766,-2.6777,-2.6887,-2.6804,-2.681,-2.6814,-2.7059,-2.7063,-2.7066,0,0,0,0,0,0,-2.6472,-2.649,-2.6634,-2.6568,-2.6586,-2.6615,-2.6656,-2.6659,-2.6684,-2.6718,-2.6723,-2.6688,-2.6754,-2.6768,-2.6847,-2.689,-2.6813,-2.6819,-2.7056,-2.706,-2.7064,-2.7109,0,0,0,0,0,0,-2.6467,-2.6488,-2.6523,-2.6569,-2.659,-2.6704,-2.6658,-2.6663,-2.6695,-2.6692,-2.6739,-2.6744,-2.6753,-2.6838,-2.6853,-2.6897,-2.6824,-2.7052,-2.7058,-2.7063,-2.7104,-2.7114,-2.7123,0,0,0,0,0,-2.646,-2.6532,-2.6525,-2.6543,-2.6635,-2.6706,-2.6718,-2.6727,-2.6699,-2.6735,-2.6756,-2.6743,-2.6883,-2.6846,-2.6863,-2.691,-2.7049,-2.7056,-2.7063,-2.7099,-2.7112,-2.7123,0,0,0,0,0,0,-2.649,-2.6538,-2.6531,-2.6621,-2.666,-2.6702,-2.6748,-2.674,-2.6788,-2.6782,-2.6791,-2.6802,-2.6882,-2.6904,-2.6862,-2.7001,-2.6962,-2.6972,-2.6984,-2.6997,-2.7006,-2.6999,-2.6829,0,0,0,0,0,-2.6507,-2.6562,-2.66,-2.6675,-2.6695,-2.6718,-2.675,-2.6753,-2.6794,-2.681,-2.6837,-2.6877,-2.693,-2.6964,-2.7015,-2.7107,-2.7117,-2.7147,-2.7157,-2.7165,-2.7174,-2.7224,-2.7238,-2.7088,-2.7088,-2.7088,0,0,-2.6543,-2.6576,-2.661,-2.6682,-2.6713,-2.6769,-2.6732,-2.6793,-2.6834,-2.6819,-2.6895,-2.6917,-2.6962,-2.7048,-2.7087,-2.7068,-2.7218,-2.7174,-2.718,-2.7184,-2.7233,-2.7247,-2.7259,-2.7092,-2.7092,-2.7091,0,0,-2.6637,-2.6667,-2.6733,-2.6765,-2.6812,-2.6827,-2.6842,-2.6887,-2.6901,-2.6978,-2.6968,-2.7017,-2.7108,-2.714,-2.7168,-2.7275,-2.7264,-2.7291,-2.7342,-2.7391,-2.7403,-2.7414,-2.7452,-2.7465,-2.73,-2.73,-2.73,0,-2.6675,-2.676,-2.6768,-2.683,-2.6862,-2.6851,-2.6918,-2.6948,-2.7009,-2.7031,-2.701,-2.7124,-2.7153,-2.7246,-2.7272,-2.7296,-2.7314,-2.7285,-2.7401,-2.7411,-2.7421,-2.7458,-2.7472,-2.7303,-2.7302,-2.7302,-2.7302,0,-2.6805,-2.6863,-2.6911,-2.697,-2.7008,-2.7072,-2.709,-2.7127,-2.7127,-2.7144,-2.7222,-2.7257,-2.7315,-2.7337,-2.7338,-2.7431,-2.7418,-2.7398,-2.7359,-2.7438,-2.7473,-2.7487,-2.7307,-2.7306,-2.7305,-2.7304,0,0,-2.692,-2.6984,-2.7001,-2.7028,-2.7079,-2.7125,-2.7188,-2.7245,-2.7276,-2.7318,-2.7372,-2.7449,-2.7432,-2.7464,-2.7468,-2.7511,-2.7593,-2.7486,-2.7487,-2.7505,-2.7698,-2.7712,-2.7728,-2.7586,-2.7589,-2.7591,-2.7694,0,-2.7019,-2.7131,-2.7141,-2.7241,-2.7295,-2.7286,-2.7341,-2.7378,-2.7396,-2.7444,-2.7463,-2.7518,-2.7491,-2.751,-2.7552,-2.7574,-2.7632,-2.7567,-2.7636,-2.7638,-2.7625,-2.7746,-2.7761,-2.7857,-2.7707,-2.771,-2.7711,0,-2.7149,-2.7196,-2.7302,-2.7346,-2.7369,-2.7418,-2.7471,-2.7517,-2.7559,-2.7569,-2.7605,-2.7603,-2.7668,-2.7627,-2.7716,-2.7672,-2.7701,-2.7716,-2.772,-2.7726,-2.768,-2.7756,-2.7887,-2.7902,-2.7733,-2.7731,-2.7729,0,-2.7223,-2.7312,-2.7387,-2.7411,-2.7463,-2.7498,-2.7522,-2.7561,-2.7595,-2.7641,-2.7663,-2.7715,-2.7744,-2.7785,-2.7798,-2.7766,-2.7887,-2.7846,-2.7897,-2.7896,-2.7922,-2.7921,-2.806,-2.7941,-2.7941,-2.794,-2.794,0,-2.7332,-2.7397,-2.7421,-2.7467,-2.754,-2.7551,-2.7622,-2.7644,-2.7679,-2.7729,-2.7724,-2.7771,-2.7785,-2.7835,-2.7845,-2.7917,-2.793,-2.794,-2.7942,-2.7941,-2.7939,-2.796,-2.7953,-2.7944,-2.7943,-2.7943,-2.7942,0,-2.7427,-2.7445,-2.7527,-2.757,-2.7583,-2.7634,-2.7671,-2.7716,-2.7733,-2.7796,-2.7812,-2.7838,-2.7896,-2.7913,-2.7982,-2.7989,-2.8074,-2.807,-2.806,-2.806,-2.811,-2.8105,-2.8267,-2.8289,-2.8155,-2.8157,-2.8158,0,-2.7495,-2.7545,-2.7594,-2.7628,-2.7653,-2.7707,-2.7741,-2.7753,-2.7789,-2.784,-2.7879,-2.7936,-2.7982,-2.8075,-2.8101,-2.8154,-2.8151,-2.8204,-2.8159,-2.8156,-2.8152,-2.8149,-2.8154,-2.8213,-2.8214,-2.8215,-2.8216,0,-2.7615,-2.7622,-2.7671,-2.7725,-2.7766,-2.7808,-2.7849,-2.7877,-2.7894,-2.7935,-2.7994,-2.803,-2.8102,-2.8159,-2.8213,-2.8236,-2.823,-2.823,-2.8245,-2.8244,-2.8236,-2.8241,-2.8084,-2.8226,-2.8225,-2.8225,-2.8224,-2.8224,-2.7699,-2.7743,-2.7784,-2.784,-2.7872,-2.791,-2.7954,-2.7977,-2.8027,-2.8086,-2.809,-2.8154,-2.8195,-2.8267,-2.8293,-2.8344,-2.8328,-2.8349,-2.8354,-2.8359,-2.8364,-2.8228,-2.8354,-2.8353,-2.8353,-2.8353,-2.8353,0,-2.7818,-2.7844,-2.7896,-2.7953,-2.7997,-2.7987,-2.8031,-2.8069,-2.8125,-2.8164,-2.821,-2.8279,-2.8334,-2.8363,-2.8419,-2.8453,-2.8451,-2.8467,-2.8465,-2.8471,-2.8374,-2.8357,-2.8468,-2.8468,-2.8468,-2.8468,-2.8468,-2.8468,-2.7885,-2.796,-2.7972,-2.8062,-2.8087,-2.8151,-2.8177,-2.8213,-2.8243,-2.832,-2.8366,-2.8385,-2.842,-2.8478,-2.8528,-2.8536,-2.8556,-2.8574,-2.8579,-2.8489,-2.8477,-2.8466,-2.8449,-2.8578,-2.8578,-2.8671,-2.8672,-2.8673]}]]